Powrót do katalogu

CZ-4 DEB

AktywnySSO
NORAD 23261·DEBRIS·🇨🇳 China

Wystrzelony Sep 3, 1990 z Taiyuan Satellite Launch Center

Loading…

Następne Przeloty (najbliższe 24 godziny)

TLE

ŚwieżeSource: Space-Track

Epoka: Sep 14, 2026, 00:47 UTC

1 23261U 90081CS  26257.03272896  .00005629  00000-0  85239-3 0  9993
2 23261  98.2322 288.2570 0015486  24.9984   4.5619 14.74508389855725

Śledź CZ-4 DEB w czasie rzeczywistym z AllMySat

Download on the App Store